TimeMDT,TemperatureF,Dew PointF,Humidity,Sea Level PressureIn,VisibilityMPH,Wind Direction,Wind SpeedMPH,Gust SpeedMPH,PrecipitationIn,Events,Conditions,WindDirDegrees,DateUTC
12:53 AM,55.0,48.9,80,30.01,10.0,North,4.6,-,0.03,,Clear,350,2013-06-18 06:53:00
1:43 AM,55.4,48.2,77,30.32,10.0,East,5.8,-,N/A,,Mostly Cloudy,90,2013-06-18 07:43:00
1:53 AM,55.9,48.9,77,30.00,10.0,East,5.8,-,N/A,,Overcast,80,2013-06-18 07:53:00
2:16 AM,55.4,48.2,77,30.32,10.0,East,9.2,-,N/A,,Overcast,80,2013-06-18 08:16:00
2:40 AM,55.4,50.0,82,30.34,10.0,East,6.9,-,N/A,,Overcast,100,2013-06-18 08:40:00
2:53 AM,55.0,51.1,86,30.01,10.0,East,6.9,-,0.00,Rain-Thunderstorm,Light Rain,100,2013-06-18 08:53:00
3:38 AM,55.4,51.8,88,30.33,10.0,ESE,6.9,-,0.00,,Overcast,120,2013-06-18 09:38:00
3:53 AM,55.9,51.1,84,30.06,10.0,SE,5.8,-,0.00,,Overcast,130,2013-06-18 09:53:00
4:53 AM,55.0,52.0,89,30.04,10.0,ESE,4.6,-,0.00,,Overcast,120,2013-06-18 10:53:00
5:53 AM,54.0,52.0,93,30.06,10.0,NNE,4.6,-,N/A,,Overcast,30,2013-06-18 11:53:00
6:53 AM,55.0,52.0,89,30.05,10.0,NNE,4.6,-,N/A,,Overcast,30,2013-06-18 12:53:00
7:53 AM,55.9,52.0,87,30.06,10.0,NNW,3.5,-,N/A,,Overcast,330,2013-06-18 13:53:00
8:53 AM,59.0,51.1,75,30.08,10.0,WSW,8.1,-,N/A,,Mostly Cloudy,240,2013-06-18 14:53:00
9:53 AM,62.1,50.0,65,30.06,10.0,SSW,15.0,-,N/A,,Overcast,200,2013-06-18 15:53:00
10:53 AM,64.9,48.9,56,30.04,10.0,SSW,15.0,21.9,N/A,,Partly Cloudy,200,2013-06-18 16:53:00
11:53 AM,69.1,48.9,49,30.00,10.0,SSW,16.1,26.5,N/A,,Clear,210,2013-06-18 17:53:00
12:53 PM,73.0,48.0,41,29.96,10.0,South,17.3,28.8,N/A,,Clear,190,2013-06-18 18:53:00
1:53 PM,77.0,46.9,34,29.91,10.0,South,23.0,28.8,N/A,,Clear,190,2013-06-18 19:53:00
2:53 PM,79.0,46.0,31,29.87,10.0,SSW,19.6,32.2,N/A,,Clear,200,2013-06-18 20:53:00
3:53 PM,81.0,44.1,27,29.83,10.0,South,21.9,34.5,N/A,,Clear,190,2013-06-18 21:53:00
4:53 PM,82.0,41.0,23,29.80,10.0,South,21.9,26.5,N/A,,Clear,190,2013-06-18 22:53:00
5:53 PM,81.0,30.0,16,29.79,10.0,SW,19.6,26.5,N/A,,Clear,220,2013-06-18 23:53:00
6:53 PM,82.0,30.0,15,29.78,10.0,SSW,19.6,29.9,N/A,,Partly Cloudy,200,2013-06-19 00:53:00
7:53 PM,79.0,25.0,14,29.78,10.0,SW,13.8,-,N/A,,Clear,220,2013-06-19 01:53:00
8:53 PM,72.0,44.1,37,29.80,10.0,South,19.6,-,N/A,,Clear,170,2013-06-19 02:53:00
9:53 PM,70.0,46.9,44,29.82,10.0,South,16.1,-,N/A,,Clear,180,2013-06-19 03:53:00
10:53 PM,66.9,48.0,51,29.84,10.0,South,13.8,-,N/A,,Clear,180,2013-06-19 04:53:00
11:53 PM,66.0,48.9,54,29.82,10.0,South,15.0,-,N/A,,Partly Cloudy,180,2013-06-19 05:53:00